Regional Weather Roundup
Issued by NWS Portland, ME

Home | Current Version | Previous Version | Text Only | Print | Product List | Glossary On
Versions: 1 2 3 4 5 6 7 8 9 10 11 12 13 14 15 16 17 18 19 20 21 22 23 24 25 26 27 28 29 30 31 32 33 34 35 36 37 38 39 40 41 42 43 44 45 46 47 48 49 50
000
ASUS41 KGYX 291910
RWRGYX
WEATHER ROUNDUP FOR MAINE AND NEW HAMPSHIRE
NATIONAL WEATHER SERVICE GRAY ME
300 PM EDT SUN MAR 29 2015

MEZ002-005-006-010-012-015-018-020-021-024-026-027-029-292000-
MAINE

CITY           SKY/WX    TMP DP  RH WIND       PRES   REMARKS
PORTLAND       SUNNY     37  15  40 S12       30.11F
SANFORD        SUNNY     39   1  20 NW7G16    30.10F
BAR HARBOR     SUNNY     37   0  20 W5        30.06F
WISCASSET      SUNNY     40   0  18 VRB6      30.10F
ROCKLAND       SUNNY     37   1  22 W6        30.08F
FRYEBURG       SUNNY     41   0  18 NE6       30.06F
LEWISTONAUBURN SUNNY     39   3  22 NW12      30.08F
AUGUSTA        SUNNY     38   3  23 W6        30.07F
WATERVILLE     SUNNY     37   1  22 SW9       30.04F
BANGOR         SUNNY     37  -1  20 W6        30.06F
GREENVILLE       N/A     34   4  28 NW9G20    29.96F
MILLINOCKET    SUNNY     37   8  30 NW10G17   30.02F
HOULTON        SUNNY     37   7  28 W8        29.97F
PRESQUE ISLE   SUNNY     37   7  28 W9        29.97F
FRENCHVILLE    SUNNY     34   8  33 CALM      29.92F
CARIBOU        SUNNY     37   8  30 W7        29.94F
$$

NHZ002-005-008-009-011-012-014-292000-
NEW HAMPSHIRE

CITY           SKY/WX    TMP DP  RH WIND       PRES   REMARKS
PORTSMOUTH     SUNNY     41   1  19 VRB5      30.10F
ROCHESTER      SUNNY     41   4  21 NW6       30.09F
NASHUA         SUNNY     42   0  17 NW13      30.13F
MANCHESTER     SUNNY     41   1  18 NW9       30.10F
CONCORD        SUNNY     41   5  22 NW12      30.11F
LACONIA        SUNNY     37   1  22 W8        30.07F
PLYMOUTH       FAIR      38  11  33 W6        30.09F
BERLIN         SUNNY     35   3  26 VRB6      30.04F
WHITEFIELD     SUNNY     36   3  25 CALM      30.06F
JAFFREY        SUNNY     36  -1  21 W7        30.09F
KEENE          SUNNY     39   1  20 CALM      30.12F
LEBANON        SUNNY     40   4  22 N5        30.10F
MT WASHINGTON  MOSUNNY    9  -2  61 NW7         N/A
$$

VTZ005-007-008-292000-
VERMONT

CITY           SKY/WX    TMP DP  RH WIND       PRES   REMARKS
ST JOHNSBURY     N/A     36   1  22 MISG      30.07F
MONTPELIER     SUNNY     33   4  29 N7        30.11F
BURLINGTON     MOSUNNY   39   5  24 S8        30.11F
$$

MAZ007-012-024-CTZ003-RIZ002-NYZ038-NYZ072-292000-
SOUTHERN NEW ENGLAND AND NY

CITY           SKY/WX    TMP DP  RH WIND       PRES   REMARKS
BOSTON         SUNNY     37  12  35 SE12      30.14F
WORCESTER      SUNNY     37   2  22 W12       30.10F
NANTUCKET      SUNNY     38  19  46 N12G20    30.15F
PROVIDENCE     SUNNY     41   8  25 VRB6      30.16F
HARTFORD       SUNNY     44   3  18 W6        30.15F
ALBANY         MOSUNNY   40   7  25 W15       30.18F
NEW YORK CITY  SUNNY     42   3  19 NW6       30.21F
$$

ANZ081-ANZ082-ANZ150-NHZ014-MEZ023>029-292000-
COASTAL MARINE OBSERVATIONS

STATION/POSITION TIME  TEMP    WIND        PRES    WAVE
                       AIR SEA DIR/SP/G            HT/PER
                 (UTC) (F)     (DEG/KT/KT) (MB)    (FT/S)
MOUNT DESERT ROC 1900   32                 1018.7F
MATINICUS ROCK   1900   31     250/ 13/ 14 1019.2F
WELLS            1800   36     180/ 14/ 16 1019.6F
ISLE OF SHOALS   1900   33     180/ 15/ 16 1019.6F
JEFFREYS LEDGE   1821      40                N/A     6/11
CASHES LEDGE BUO 1750   31 38              1020.6
$$

.............KEY..............
   WCI - WIND CHILL
   TC  - TEMPERATURE IN CELSIUS
   VSB - VISIBILITY IN MILES
   HX  - HEAT INDEX
   FAIR- INDICATES FEW OR NO CLOUDS BELOW 12,000 FT, WITH NO
         SIGNIFICANT WEATHER AND/OR OBSTRUCTIONS TO VISIBILITY.





USA.gov is the U.S. government's official web portal to all federal, state and local government web resources and services.